<?xml version='1.0' encoding='UTF-8'?>
<gpx xmlns="http://www.topografix.com/GPX/1/1" creator="www.balnam.be" version="1.1" xmlns:xsi="http://www.w3.org/2001/XMLSchema-instance" xsi:schemaLocation="http://www.topografix.com/GPX/1/1 http://www.topografix.com/GPX/1/1/gpx.xsd">
<trk>
<name>nongr11</name>
<cmt>v</cmt>
<desc>Gerin Chemin n°11 chemin N° 11</desc>
<link href="https://chemins.be/gerin/chemin/11"/><trkseg>
<trkpt lat="50.239400" lon="4.804755"><time>2026-05-02T22:56:36Z</time></trkpt>
<trkpt lat="50.239948" lon="4.807144"><time>2026-05-02T23:06:36Z</time></trkpt>
<trkpt lat="50.240124" lon="4.808169"><time>2026-05-02T23:16:36Z</time></trkpt>
<trkpt lat="50.240446" lon="4.810863"><time>2026-05-02T23:26:36Z</time></trkpt>
</trkseg>
</trk>
<trk>
<name>nongr12</name>
<cmt>s</cmt>
<desc>Gerin Chemin n°12 </desc>
<link href="https://chemins.be/gerin/chemin/12"/><trkseg>
<trkpt lat="50.241705" lon="4.815627"><time>2026-05-02T22:56:36Z</time></trkpt>
<trkpt lat="50.241454" lon="4.815373"><time>2026-05-02T23:06:36Z</time></trkpt>
<trkpt lat="50.241204" lon="4.814950"><time>2026-05-02T23:16:36Z</time></trkpt>
<trkpt lat="50.241062" lon="4.814472"><time>2026-05-02T23:26:36Z</time></trkpt>
</trkseg></trk>
<trk>
<name>nongr12</name>
<cmt>r</cmt>
<desc>Gerin Chemin n°12 </desc>
<link href="https://chemins.be/gerin/chemin/12"/><trkseg>
<trkpt lat="50.241062" lon="4.814472"><time>2026-05-02T23:26:36Z</time></trkpt>
<trkpt lat="50.238869" lon="4.814143"><time>2026-05-02T23:36:36Z</time></trkpt>
<trkpt lat="50.237410" lon="4.812832"><time>2026-05-02T23:46:36Z</time></trkpt>
<trkpt lat="50.233437" lon="4.812639"><time>2026-05-02T23:56:36Z</time></trkpt>
<trkpt lat="50.232112" lon="4.813616"><time>2026-05-03T00:06:36Z</time></trkpt>
<trkpt lat="50.230878" lon="4.813689"><time>2026-05-03T00:16:36Z</time></trkpt>
<trkpt lat="50.227343" lon="4.814119"><time>2026-05-03T00:26:36Z</time></trkpt>
</trkseg>
</trk>
<trk>
<name>nongr13</name>
<cmt>r</cmt>
<desc>Gerin Chemin n°13 Rue des Champs</desc>
<link href="https://chemins.be/gerin/chemin/13"/><trkseg>
<trkpt lat="50.241857" lon="4.815643"><time>2026-05-02T22:56:36Z</time></trkpt>
<trkpt lat="50.241632" lon="4.815711"><time>2026-05-02T23:06:36Z</time></trkpt>
<trkpt lat="50.241244" lon="4.816254"><time>2026-05-02T23:16:36Z</time></trkpt>
<trkpt lat="50.236416" lon="4.818549"><time>2026-05-02T23:26:36Z</time></trkpt>
<trkpt lat="50.234310" lon="4.821487"><time>2026-05-02T23:36:36Z</time></trkpt>
</trkseg></trk>
<trk>
<name>nongr13</name>
<cmt>d</cmt>
<desc>Gerin Chemin n°13 Rue des Champs</desc>
<link href="https://chemins.be/gerin/chemin/13"/><trkseg>
<trkpt lat="50.234310" lon="4.821487"><time>2026-05-02T23:36:36Z</time></trkpt>
<trkpt lat="50.233812" lon="4.822337"><time>2026-05-02T23:46:36Z</time></trkpt>
</trkseg>
</trk>
<trk>
<name>nongr14</name>
<cmt>d</cmt>
<desc>Gerin Chemin n°14 </desc>
<link href="https://chemins.be/gerin/chemin/14"/><trkseg>
<trkpt lat="50.236316" lon="4.818689"><time>2026-05-02T22:56:36Z</time></trkpt>
<trkpt lat="50.235731" lon="4.818921"><time>2026-05-02T23:06:36Z</time></trkpt>
</trkseg>
</trk>
<trk>
<name>nongr15</name>
<cmt>s</cmt>
<desc>Gerin Chemin n°15 </desc>
<link href="https://chemins.be/gerin/chemin/15"/><trkseg>
<trkpt lat="50.241080" lon="4.814472"><time>2026-05-02T22:56:36Z</time></trkpt>
<trkpt lat="50.241298" lon="4.816226"><time>2026-05-02T23:06:36Z</time></trkpt>
<trkpt lat="50.241273" lon="4.820165"><time>2026-05-02T23:16:36Z</time></trkpt>
<trkpt lat="50.241215" lon="4.823501"><time>2026-05-02T23:26:36Z</time></trkpt>
<trkpt lat="50.240720" lon="4.825992"><time>2026-05-02T23:36:36Z</time></trkpt>
</trkseg>
</trk>
<trk>
<name>nongr16</name>
<cmt>r</cmt>
<desc>Gerin Chemin n°16 Rue du Cimetière</desc>
<link href="https://chemins.be/gerin/chemin/16"/><trkseg>
<trkpt lat="50.244453" lon="4.816326"><time>2026-05-02T22:56:36Z</time></trkpt>
<trkpt lat="50.244289" lon="4.816899"><time>2026-05-02T23:06:36Z</time></trkpt>
<trkpt lat="50.244278" lon="4.817376"><time>2026-05-02T23:16:36Z</time></trkpt>
<trkpt lat="50.244626" lon="4.818220"><time>2026-05-02T23:26:36Z</time></trkpt>
<trkpt lat="50.244632" lon="4.818879"><time>2026-05-02T23:36:36Z</time></trkpt>
</trkseg></trk>
<trk>
<name>nongr16</name>
<cmt>v</cmt>
<desc>Gerin Chemin n°16 Rue du Cimetière</desc>
<link href="https://chemins.be/gerin/chemin/16"/><trkseg>
<trkpt lat="50.244632" lon="4.818879"><time>2026-05-02T23:36:36Z</time></trkpt>
<trkpt lat="50.244700" lon="4.819890"><time>2026-05-02T23:46:36Z</time></trkpt>
<trkpt lat="50.244797" lon="4.820339"><time>2026-05-02T23:56:36Z</time></trkpt>
<trkpt lat="50.244985" lon="4.820607"><time>2026-05-03T00:06:36Z</time></trkpt>
</trkseg>
</trk>
<trk>
<name>nongr2</name>
<cmt>r</cmt>
<desc>Gerin Chemin n°2 Beaurond</desc>
<link href="https://chemins.be/gerin/chemin/2"/><trkseg>
<trkpt lat="50.242096" lon="4.825991"><time>2026-05-02T22:56:36Z</time></trkpt>
<trkpt lat="50.241492" lon="4.826266"><time>2026-05-02T23:06:36Z</time></trkpt>
<trkpt lat="50.239911" lon="4.825984"><time>2026-05-02T23:16:36Z</time></trkpt>
</trkseg>
</trk>
<trk>
<name>nongr20</name>
<cmt>v</cmt>
<desc>Gerin Sentier n°20 Chemin n°20</desc>
<link href="https://chemins.be/gerin/sentier/20"/><trkseg>
<trkpt lat="50.246414" lon="4.811297"><time>2026-05-02T22:56:36Z</time></trkpt>
<trkpt lat="50.247705" lon="4.807580"><time>2026-05-02T23:06:36Z</time></trkpt>
<trkpt lat="50.248113" lon="4.804316"><time>2026-05-02T23:16:36Z</time></trkpt>
</trkseg></trk>
<trk>
<name>nongr20</name>
<cmt>d</cmt>
<desc>Gerin Sentier n°20 Chemin n°20</desc>
<link href="https://chemins.be/gerin/sentier/20"/><trkseg>
<trkpt lat="50.248113" lon="4.804316"><time>2026-05-02T23:16:36Z</time></trkpt>
<trkpt lat="50.248159" lon="4.799367"><time>2026-05-02T23:26:36Z</time></trkpt>
<trkpt lat="50.248199" lon="4.798344"><time>2026-05-02T23:36:36Z</time></trkpt>
</trkseg></trk>
<trk>
<name>nongr20</name>
<cmt>v</cmt>
<desc>Gerin Sentier n°20 Chemin n°20</desc>
<link href="https://chemins.be/gerin/sentier/20"/><trkseg>
<trkpt lat="50.248199" lon="4.798344"><time>2026-05-02T23:36:36Z</time></trkpt>
<trkpt lat="50.248382" lon="4.797407"><time>2026-05-02T23:46:36Z</time></trkpt>
<trkpt lat="50.248676" lon="4.795586"><time>2026-05-02T23:56:36Z</time></trkpt>
<trkpt lat="50.249713" lon="4.794698"><time>2026-05-03T00:06:36Z</time></trkpt>
<trkpt lat="50.249806" lon="4.794012"><time>2026-05-03T00:16:36Z</time></trkpt>
</trkseg>
</trk>
<trk>
<name>nongr21</name>
<cmt>v</cmt>
<desc>Gerin Sentier n°21 Chemin n°21</desc>
<link href="https://chemins.be/gerin/sentier/21"/><trkseg>
<trkpt lat="50.247643" lon="4.807670"><time>2026-05-02T22:56:36Z</time></trkpt>
<trkpt lat="50.248454" lon="4.806885"><time>2026-05-02T23:06:36Z</time></trkpt>
<trkpt lat="50.248854" lon="4.805781"><time>2026-05-02T23:16:36Z</time></trkpt>
<trkpt lat="50.249419" lon="4.805379"><time>2026-05-02T23:26:36Z</time></trkpt>
<trkpt lat="50.249506" lon="4.804972"><time>2026-05-02T23:36:36Z</time></trkpt>
<trkpt lat="50.250555" lon="4.804424"><time>2026-05-02T23:46:36Z</time></trkpt>
<trkpt lat="50.251139" lon="4.803978"><time>2026-05-02T23:56:36Z</time></trkpt>
<trkpt lat="50.251513" lon="4.804095"><time>2026-05-03T00:06:36Z</time></trkpt>
<trkpt lat="50.251670" lon="4.804249"><time>2026-05-03T00:16:36Z</time></trkpt>
<trkpt lat="50.252031" lon="4.805365"><time>2026-05-03T00:26:36Z</time></trkpt>
</trkseg>
</trk>
<trk>
<name>nongr22</name>
<cmt>q</cmt>
<desc>Gerin Sentier n°22 </desc>
<link href="https://chemins.be/gerin/sentier/22"/><trkseg>
<trkpt lat="50.242717" lon="4.828114"><time>2026-05-02T22:56:36Z</time></trkpt>
<trkpt lat="50.243435" lon="4.826046"><time>2026-05-02T23:06:36Z</time></trkpt>
<trkpt lat="50.243856" lon="4.824200"><time>2026-05-02T23:16:36Z</time></trkpt>
<trkpt lat="50.244154" lon="4.823908"><time>2026-05-02T23:26:36Z</time></trkpt>
<trkpt lat="50.244309" lon="4.823363"><time>2026-05-02T23:36:36Z</time></trkpt>
<trkpt lat="50.244710" lon="4.821880"><time>2026-05-02T23:46:36Z</time></trkpt>
<trkpt lat="50.245066" lon="4.820650"><time>2026-05-02T23:56:36Z</time></trkpt>
<trkpt lat="50.245131" lon="4.820048"><time>2026-05-03T00:06:36Z</time></trkpt>
<trkpt lat="50.245320" lon="4.819980"><time>2026-05-03T00:16:36Z</time></trkpt>
<trkpt lat="50.245314" lon="4.819208"><time>2026-05-03T00:26:36Z</time></trkpt>
<trkpt lat="50.245528" lon="4.817332"><time>2026-05-03T00:36:36Z</time></trkpt>
<trkpt lat="50.245621" lon="4.816533"><time>2026-05-03T00:46:36Z</time></trkpt>
</trkseg>
</trk>
<trk>
<name>nongr23</name>
<cmt>b</cmt>
<desc>Gerin Sentier n°23 </desc>
<link href="https://chemins.be/gerin/sentier/23"/><trkseg>
<trkpt lat="50.244655" lon="4.819917"><time>2026-05-02T22:56:36Z</time></trkpt>
<trkpt lat="50.244488" lon="4.821107"><time>2026-05-02T23:06:36Z</time></trkpt>
<trkpt lat="50.244360" lon="4.821863"><time>2026-05-02T23:16:36Z</time></trkpt>
</trkseg></trk>
<trk>
<name>nongr23</name>
<cmt>v</cmt>
<desc>Gerin Sentier n°23 </desc>
<link href="https://chemins.be/gerin/sentier/23"/><trkseg>
<trkpt lat="50.244360" lon="4.821863"><time>2026-05-02T23:16:36Z</time></trkpt>
<trkpt lat="50.244277" lon="4.822269"><time>2026-05-02T23:26:36Z</time></trkpt>
<trkpt lat="50.244282" lon="4.823377"><time>2026-05-02T23:36:36Z</time></trkpt>
<trkpt lat="50.244217" lon="4.823881"><time>2026-05-02T23:46:36Z</time></trkpt>
</trkseg>
</trk>
<trk>
<name>nongr24</name>
<cmt>v</cmt>
<desc>Gerin Sentier n°24 </desc>
<link href="https://chemins.be/gerin/sentier/24"/><trkseg>
<trkpt lat="50.245694" lon="4.820894"><time>2026-05-02T22:56:36Z</time></trkpt>
<trkpt lat="50.244805" lon="4.820578"><time>2026-05-02T23:06:36Z</time></trkpt>
</trkseg></trk>
<trk>
<name>nongr24</name>
<cmt>d</cmt>
<desc>Gerin Sentier n°24 </desc>
<link href="https://chemins.be/gerin/sentier/24"/><trkseg>
<trkpt lat="50.244805" lon="4.820578"><time>2026-05-02T23:06:36Z</time></trkpt>
<trkpt lat="50.244581" lon="4.820519"><time>2026-05-02T23:16:36Z</time></trkpt>
<trkpt lat="50.244382" lon="4.820658"><time>2026-05-02T23:26:36Z</time></trkpt>
<trkpt lat="50.244230" lon="4.820656"><time>2026-05-02T23:36:36Z</time></trkpt>
</trkseg>
</trk>
<trk>
<name>nongr25</name>
<cmt>s</cmt>
<desc>Gerin Sentier n°25 </desc>
<link href="https://chemins.be/gerin/sentier/25"/><trkseg>
<trkpt lat="50.246014" lon="4.819594"><time>2026-05-02T22:56:36Z</time></trkpt>
<trkpt lat="50.245727" lon="4.819437"><time>2026-05-02T23:06:36Z</time></trkpt>
<trkpt lat="50.245577" lon="4.818706"><time>2026-05-02T23:16:36Z</time></trkpt>
<trkpt lat="50.245406" lon="4.818676"><time>2026-05-02T23:26:36Z</time></trkpt>
</trkseg>
</trk>
<trk>
<name>nongr26</name>
<cmt>q</cmt>
<desc>Gerin Sentier n°26 </desc>
<link href="https://chemins.be/gerin/sentier/26"/><trkseg>
<trkpt lat="50.246121" lon="4.819777"><time>2026-05-02T22:56:36Z</time></trkpt>
<trkpt lat="50.246543" lon="4.819907"><time>2026-05-02T23:06:36Z</time></trkpt>
<trkpt lat="50.246970" lon="4.821187"><time>2026-05-02T23:16:36Z</time></trkpt>
<trkpt lat="50.247094" lon="4.821581"><time>2026-05-02T23:26:36Z</time></trkpt>
<trkpt lat="50.247481" lon="4.823842"><time>2026-05-02T23:36:36Z</time></trkpt>
<trkpt lat="50.248087" lon="4.825208"><time>2026-05-02T23:46:36Z</time></trkpt>
<trkpt lat="50.249339" lon="4.826832"><time>2026-05-02T23:56:36Z</time></trkpt>
</trkseg>
</trk>
<trk>
<name>nongr27</name>
<cmt>v</cmt>
<desc>Gerin Sentier n°27 Rue Boursoit</desc>
<link href="https://chemins.be/gerin/sentier/27"/><trkseg>
<trkpt lat="50.245703" lon="4.816380"><time>2026-05-02T22:56:36Z</time></trkpt>
<trkpt lat="50.246465" lon="4.816752"><time>2026-05-02T23:06:36Z</time></trkpt>
<trkpt lat="50.248209" lon="4.817020"><time>2026-05-02T23:16:36Z</time></trkpt>
<trkpt lat="50.248337" lon="4.816475"><time>2026-05-02T23:26:36Z</time></trkpt>
</trkseg></trk>
<trk>
<name>nongr27</name>
<cmt>d</cmt>
<desc>Gerin Sentier n°27 Rue Boursoit</desc>
<link href="https://chemins.be/gerin/sentier/27"/><trkseg>
<trkpt lat="50.248337" lon="4.816475"><time>2026-05-02T23:26:36Z</time></trkpt>
<trkpt lat="50.248976" lon="4.816144"><time>2026-05-02T23:36:36Z</time></trkpt>
</trkseg>
</trk>
<trk>
<name>nongr27bis</name>
<cmt>d</cmt>
<desc>Gerin Sentier n°27bis </desc>
<link href="https://chemins.be/gerin/sentier/27bis"/><trkseg>
<trkpt lat="50.249541" lon="4.814453"><time>2026-05-02T22:56:36Z</time></trkpt>
<trkpt lat="50.250565" lon="4.814088"><time>2026-05-02T23:06:36Z</time></trkpt>
<trkpt lat="50.250776" lon="4.813315"><time>2026-05-02T23:16:36Z</time></trkpt>
</trkseg>
</trk>
<trk>
<name>nongr28</name>
<cmt>d</cmt>
<desc>Gerin Sentier n°28 </desc>
<link href="https://chemins.be/gerin/sentier/28"/><trkseg>
<trkpt lat="50.248963" lon="4.817238"><time>2026-05-02T22:56:36Z</time></trkpt>
<trkpt lat="50.251406" lon="4.817822"><time>2026-05-02T23:06:36Z</time></trkpt>
</trkseg>
</trk>
<trk>
<name>nongr29</name>
<cmt>v</cmt>
<desc>Gerin Sentier n°29 </desc>
<link href="https://chemins.be/gerin/sentier/29"/><trkseg>
<trkpt lat="50.249814" lon="4.813376"><time>2026-05-02T22:56:36Z</time></trkpt>
<trkpt lat="50.250130" lon="4.813028"><time>2026-05-02T23:06:36Z</time></trkpt>
<trkpt lat="50.250382" lon="4.813087"><time>2026-05-02T23:16:36Z</time></trkpt>
<trkpt lat="50.250758" lon="4.813287"><time>2026-05-02T23:26:36Z</time></trkpt>
<trkpt lat="50.251460" lon="4.813251"><time>2026-05-02T23:36:36Z</time></trkpt>
<trkpt lat="50.252247" lon="4.811898"><time>2026-05-02T23:46:36Z</time></trkpt>
<trkpt lat="50.253053" lon="4.810532"><time>2026-05-02T23:56:36Z</time></trkpt>
<trkpt lat="50.253224" lon="4.810491"><time>2026-05-03T00:06:36Z</time></trkpt>
</trkseg>
</trk>
<trk>
<name>nongr30</name>
<cmt>v</cmt>
<desc>Gerin Sentier n°30 Rue Boursoit</desc>
<link href="https://chemins.be/gerin/sentier/30"/><trkseg>
<trkpt lat="50.245715" lon="4.815427"><time>2026-05-02T22:56:36Z</time></trkpt>
<trkpt lat="50.245095" lon="4.815505"><time>2026-05-02T23:06:36Z</time></trkpt>
<trkpt lat="50.245051" lon="4.815196"><time>2026-05-02T23:16:36Z</time></trkpt>
<trkpt lat="50.244565" lon="4.815234"><time>2026-05-02T23:26:36Z</time></trkpt>
<trkpt lat="50.244496" lon="4.814462"><time>2026-05-02T23:36:36Z</time></trkpt>
<trkpt lat="50.244137" lon="4.814388"><time>2026-05-02T23:46:36Z</time></trkpt>
</trkseg></trk>
<trk>
<name>nongr30</name>
<cmt>d</cmt>
<desc>Gerin Sentier n°30 Rue Boursoit</desc>
<link href="https://chemins.be/gerin/sentier/30"/><trkseg>
<trkpt lat="50.244137" lon="4.814388"><time>2026-05-02T23:46:36Z</time></trkpt>
<trkpt lat="50.243206" lon="4.813454"><time>2026-05-02T23:56:36Z</time></trkpt>
</trkseg></trk>
<trk>
<name>nongr30</name>
<cmt>s</cmt>
<desc>Gerin Sentier n°30 Rue Boursoit</desc>
<link href="https://chemins.be/gerin/sentier/30"/><trkseg>
<trkpt lat="50.243206" lon="4.813454"><time>2026-05-02T23:56:36Z</time></trkpt>
<trkpt lat="50.241790" lon="4.812221"><time>2026-05-03T00:06:36Z</time></trkpt>
<trkpt lat="50.240527" lon="4.811032"><time>2026-05-03T00:16:36Z</time></trkpt>
</trkseg>
</trk>
<trk>
<name>nongr31</name>
<cmt>q</cmt>
<desc>Gerin Sentier n°31 </desc>
<link href="https://chemins.be/gerin/sentier/31"/><trkseg>
<trkpt lat="50.244280" lon="4.816829"><time>2026-05-02T22:56:36Z</time></trkpt>
<trkpt lat="50.243222" lon="4.816160"><time>2026-05-02T23:06:36Z</time></trkpt>
<trkpt lat="50.242988" lon="4.816116"><time>2026-05-02T23:16:36Z</time></trkpt>
<trkpt lat="50.241991" lon="4.816065"><time>2026-05-02T23:26:36Z</time></trkpt>
<trkpt lat="50.241333" lon="4.816311"><time>2026-05-02T23:36:36Z</time></trkpt>
</trkseg>
</trk>
<trk>
<name>nongr33</name>
<cmt>d</cmt>
<desc>Gerin Sentier n°33 </desc>
<link href="https://chemins.be/gerin/sentier/33"/><trkseg>
<trkpt lat="50.233631" lon="4.822560"><time>2026-05-02T22:56:36Z</time></trkpt>
<trkpt lat="50.233132" lon="4.823592"><time>2026-05-02T23:06:36Z</time></trkpt>
<trkpt lat="50.230734" lon="4.825462"><time>2026-05-02T23:16:36Z</time></trkpt>
</trkseg></trk>
<trk>
<name>nongr33</name>
<cmt>v</cmt>
<desc>Gerin Sentier n°33 </desc>
<link href="https://chemins.be/gerin/sentier/33"/><trkseg>
<trkpt lat="50.230734" lon="4.825462"><time>2026-05-02T23:16:36Z</time></trkpt>
<trkpt lat="50.229840" lon="4.826294"><time>2026-05-02T23:26:36Z</time></trkpt>
<trkpt lat="50.229481" lon="4.826234"><time>2026-05-02T23:36:36Z</time></trkpt>
<trkpt lat="50.229337" lon="4.826317"><time>2026-05-02T23:46:36Z</time></trkpt>
<trkpt lat="50.229327" lon="4.826555"><time>2026-05-02T23:56:36Z</time></trkpt>
</trkseg>
</trk>
<trk>
<name>nongr34</name>
<cmt>d</cmt>
<desc>Gerin Sentier n°34 </desc>
<link href="https://chemins.be/gerin/sentier/34"/><trkseg>
<trkpt lat="50.235740" lon="4.818949"><time>2026-05-02T22:56:36Z</time></trkpt>
<trkpt lat="50.234867" lon="4.819194"><time>2026-05-02T23:06:36Z</time></trkpt>
<trkpt lat="50.234085" lon="4.819186"><time>2026-05-02T23:16:36Z</time></trkpt>
<trkpt lat="50.233143" lon="4.818729"><time>2026-05-02T23:26:36Z</time></trkpt>
<trkpt lat="50.232855" lon="4.818726"><time>2026-05-02T23:36:36Z</time></trkpt>
<trkpt lat="50.232296" lon="4.819099"><time>2026-05-02T23:46:36Z</time></trkpt>
<trkpt lat="50.231764" lon="4.819599"><time>2026-05-02T23:56:36Z</time></trkpt>
</trkseg>
</trk>
<trk>
<name>nongr35</name>
<cmt>s</cmt>
<desc>Gerin Sentier n°35 </desc>
<link href="https://chemins.be/gerin/sentier/35"/><trkseg>
<trkpt lat="50.240746" lon="4.812478"><time>2026-05-02T22:56:36Z</time></trkpt>
<trkpt lat="50.240921" lon="4.811386"><time>2026-05-02T23:06:36Z</time></trkpt>
<trkpt lat="50.241143" lon="4.809748"><time>2026-05-02T23:16:36Z</time></trkpt>
<trkpt lat="50.241144" lon="4.809496"><time>2026-05-02T23:26:36Z</time></trkpt>
<trkpt lat="50.241177" lon="4.805543"><time>2026-05-02T23:36:36Z</time></trkpt>
<trkpt lat="50.240592" lon="4.800855"><time>2026-05-02T23:46:36Z</time></trkpt>
<trkpt lat="50.240139" lon="4.796842"><time>2026-05-02T23:56:36Z</time></trkpt>
<trkpt lat="50.240116" lon="4.793449"><time>2026-05-03T00:06:36Z</time></trkpt>
</trkseg>
</trk>
<trk>
<name>nongr37</name>
<cmt>v</cmt>
<desc>Gerin Sentier n°37 </desc>
<link href="https://chemins.be/gerin/sentier/37"/><trkseg>
<trkpt lat="50.227298" lon="4.814231"><time>2026-05-02T22:56:36Z</time></trkpt>
<trkpt lat="50.226408" lon="4.814334"><time>2026-05-02T23:06:36Z</time></trkpt>
</trkseg></trk>
<trk>
<name>nongr37</name>
<cmt>d</cmt>
<desc>Gerin Sentier n°37 </desc>
<link href="https://chemins.be/gerin/sentier/37"/><trkseg>
<trkpt lat="50.226408" lon="4.814334"><time>2026-05-02T23:06:36Z</time></trkpt>
<trkpt lat="50.224389" lon="4.813208"><time>2026-05-02T23:16:36Z</time></trkpt>
</trkseg>
</trk>
<trk>
<name>nongr39</name>
<cmt>s</cmt>
<desc>Gerin Sentier n°39 </desc>
<link href="https://chemins.be/gerin/sentier/39"/><trkseg>
<trkpt lat="50.241475" lon="4.826111"><time>2026-05-02T22:56:36Z</time></trkpt>
<trkpt lat="50.241164" lon="4.825057"><time>2026-05-02T23:06:36Z</time></trkpt>
<trkpt lat="50.241187" lon="4.823922"><time>2026-05-02T23:16:36Z</time></trkpt>
</trkseg>
</trk>
<trk>
<name>nongr4</name>
<cmt>v</cmt>
<desc>Gerin Chemin n°4 </desc>
<link href="https://chemins.be/gerin/chemin/4"/><trkseg>
<trkpt lat="50.245989" lon="4.807297"><time>2026-05-02T22:56:36Z</time></trkpt>
<trkpt lat="50.245847" lon="4.806819"><time>2026-05-02T23:06:36Z</time></trkpt>
<trkpt lat="50.245338" lon="4.806058"><time>2026-05-02T23:16:36Z</time></trkpt>
<trkpt lat="50.244355" lon="4.800895"><time>2026-05-02T23:26:36Z</time></trkpt>
<trkpt lat="50.242746" lon="4.793651"><time>2026-05-02T23:36:36Z</time></trkpt>
<trkpt lat="50.242661" lon="4.791610"><time>2026-05-02T23:46:36Z</time></trkpt>
<trkpt lat="50.242570" lon="4.788676"><time>2026-05-02T23:56:36Z</time></trkpt>
</trkseg>
</trk>
<trk>
<name>nongr5</name>
<cmt>r</cmt>
<desc>Gerin Chemin n°5 Rue de la Montagne / Chemin n°5</desc>
<link href="https://chemins.be/gerin/chemin/5"/><trkseg>
<trkpt lat="50.246669" lon="4.815323"><time>2026-05-02T22:56:36Z</time></trkpt>
<trkpt lat="50.248319" lon="4.816377"><time>2026-05-02T23:06:36Z</time></trkpt>
</trkseg></trk>
<trk>
<name>nongr5</name>
<cmt>v</cmt>
<desc>Gerin Chemin n°5 Rue de la Montagne / Chemin n°5</desc>
<link href="https://chemins.be/gerin/chemin/5"/><trkseg>
<trkpt lat="50.248319" lon="4.816377"><time>2026-05-02T23:06:36Z</time></trkpt>
<trkpt lat="50.248565" lon="4.815566"><time>2026-05-02T23:16:36Z</time></trkpt>
<trkpt lat="50.249431" lon="4.814887"><time>2026-05-02T23:26:36Z</time></trkpt>
<trkpt lat="50.249760" lon="4.813460"><time>2026-05-02T23:36:36Z</time></trkpt>
<trkpt lat="50.250206" lon="4.812048"><time>2026-05-02T23:46:36Z</time></trkpt>
<trkpt lat="50.250661" lon="4.810411"><time>2026-05-02T23:56:36Z</time></trkpt>
<trkpt lat="50.251643" lon="4.807518"><time>2026-05-03T00:06:36Z</time></trkpt>
<trkpt lat="50.252019" lon="4.805740"><time>2026-05-03T00:16:36Z</time></trkpt>
<trkpt lat="50.252015" lon="4.805440"><time>2026-05-03T00:26:36Z</time></trkpt>
<trkpt lat="50.252138" lon="4.805125"><time>2026-05-03T00:36:36Z</time></trkpt>
<trkpt lat="50.252614" lon="4.805171"><time>2026-05-03T00:46:36Z</time></trkpt>
</trkseg>
</trk>
<trk>
<name>nongr7</name>
<cmt>r</cmt>
<desc>Gerin Chemin n°7 Rue du Tilleul / Rue Gilbert Cléda</desc>
<link href="https://chemins.be/gerin/chemin/7"/><trkseg>
<trkpt lat="50.246472" lon="4.815055"><time>2026-05-02T22:56:36Z</time></trkpt>
<trkpt lat="50.246461" lon="4.810891"><time>2026-05-02T23:06:36Z</time></trkpt>
<trkpt lat="50.246106" lon="4.807411"><time>2026-05-02T23:16:36Z</time></trkpt>
<trkpt lat="50.246781" lon="4.804739"><time>2026-05-02T23:26:36Z</time></trkpt>
<trkpt lat="50.246582" lon="4.802620"><time>2026-05-02T23:36:36Z</time></trkpt>
<trkpt lat="50.246771" lon="4.800280"><time>2026-05-02T23:46:36Z</time></trkpt>
<trkpt lat="50.246276" lon="4.795411"><time>2026-05-02T23:56:36Z</time></trkpt>
<trkpt lat="50.245984" lon="4.791735"><time>2026-05-03T00:06:36Z</time></trkpt>
</trkseg>
</trk>
<trk>
<name>nongr8</name>
<cmt>v</cmt>
<desc>Gerin Chemin n°8 </desc>
<link href="https://chemins.be/gerin/chemin/8"/><trkseg>
<trkpt lat="50.235019" lon="4.822773"><time>2026-05-02T22:56:36Z</time></trkpt>
<trkpt lat="50.234310" lon="4.821389"><time>2026-05-02T23:06:36Z</time></trkpt>
<trkpt lat="50.233053" lon="4.818719"><time>2026-05-02T23:16:36Z</time></trkpt>
<trkpt lat="50.232374" lon="4.817530"><time>2026-05-02T23:26:36Z</time></trkpt>
<trkpt lat="50.231241" lon="4.815305"><time>2026-05-02T23:36:36Z</time></trkpt>
<trkpt lat="50.230573" lon="4.813575"><time>2026-05-02T23:46:36Z</time></trkpt>
<trkpt lat="50.230065" lon="4.812364"><time>2026-05-02T23:56:36Z</time></trkpt>
<trkpt lat="50.229869" lon="4.811149"><time>2026-05-03T00:06:36Z</time></trkpt>
</trkseg>
</trk>
<trk>
<name>nongr9</name>
<cmt>r</cmt>
<desc>Gerin Chemin n°9 </desc>
<link href="https://chemins.be/gerin/chemin/9"/><trkseg>
<trkpt lat="50.241760" lon="4.813979"><time>2026-05-02T22:56:36Z</time></trkpt>
<trkpt lat="50.241016" lon="4.814404"><time>2026-05-02T23:06:36Z</time></trkpt>
<trkpt lat="50.240423" lon="4.810928"><time>2026-05-02T23:16:36Z</time></trkpt>
<trkpt lat="50.239743" lon="4.810327"><time>2026-05-02T23:26:36Z</time></trkpt>
<trkpt lat="50.238669" lon="4.809804"><time>2026-05-02T23:36:36Z</time></trkpt>
<trkpt lat="50.237635" lon="4.808894"><time>2026-05-02T23:46:36Z</time></trkpt>
<trkpt lat="50.236792" lon="4.807682"><time>2026-05-02T23:56:36Z</time></trkpt>
<trkpt lat="50.235475" lon="4.806986"><time>2026-05-03T00:06:36Z</time></trkpt>
</trkseg>
</trk>
<trk>
<name>nongri1</name>
<cmt>v</cmt>
<desc>Gerin Chemin n°i1 </desc>
<link href="https://chemins.be/gerin/chemin/i1"/><trkseg>
<trkpt lat="50.244722" lon="4.824007"><time>2026-05-02T22:56:36Z</time></trkpt>
<trkpt lat="50.245421" lon="4.824102"><time>2026-05-02T23:06:36Z</time></trkpt>
<trkpt lat="50.246520" lon="4.821239"><time>2026-05-02T23:16:36Z</time></trkpt>
<trkpt lat="50.246842" lon="4.821536"><time>2026-05-02T23:26:36Z</time></trkpt>
<trkpt lat="50.247060" lon="4.820963"><time>2026-05-02T23:36:36Z</time></trkpt>
<trkpt lat="50.247388" lon="4.820069"><time>2026-05-02T23:46:36Z</time></trkpt>
<trkpt lat="50.248050" lon="4.818393"><time>2026-05-02T23:56:36Z</time></trkpt>
<trkpt lat="50.248199" lon="4.817048"><time>2026-05-03T00:06:36Z</time></trkpt>
</trkseg>
</trk>
<trk>
<name>nongri2</name>
<cmt>v</cmt>
<desc>Gerin Chemin n°i2 </desc>
<link href="https://chemins.be/gerin/chemin/i2"/><trkseg>
<trkpt lat="50.245884" lon="4.820588"><time>2026-05-02T22:56:36Z</time></trkpt>
<trkpt lat="50.246529" lon="4.821169"><time>2026-05-02T23:06:36Z</time></trkpt>
</trkseg>
</trk>
<trk>
<name>nongri3</name>
<cmt>v</cmt>
<desc>Gerin Chemin n°i3 </desc>
<link href="https://chemins.be/gerin/chemin/i3"/><trkseg>
<trkpt lat="50.243167" lon="4.827796"><time>2026-05-02T22:56:36Z</time></trkpt>
<trkpt lat="50.242629" lon="4.825183"><time>2026-05-02T23:06:36Z</time></trkpt>
</trkseg>
</trk>
<trk>
<name>nongri4</name>
<cmt>v</cmt>
<desc>Gerin Sentier n°i4 </desc>
<link href="https://chemins.be/gerin/sentier/i4"/><trkseg>
<trkpt lat="50.228260" lon="4.825704"><time>2026-05-02T22:56:36Z</time></trkpt>
<trkpt lat="50.228587" lon="4.824866"><time>2026-05-02T23:06:36Z</time></trkpt>
<trkpt lat="50.228264" lon="4.824793"><time>2026-05-02T23:16:36Z</time></trkpt>
<trkpt lat="50.227062" lon="4.824011"><time>2026-05-02T23:26:36Z</time></trkpt>
<trkpt lat="50.225013" lon="4.823907"><time>2026-05-02T23:36:36Z</time></trkpt>
<trkpt lat="50.224453" lon="4.824406"><time>2026-05-02T23:46:36Z</time></trkpt>
</trkseg>
</trk>
</gpx>